Regional Weather Roundup
Issued by NWS Sterling, VA

Home | Current Version | Previous Version | Text Only | Print | Product List | Glossary Off
Versions: 1 2 3 4 5 6 7 8 9 10 11 12 13 14 15 16 17 18 19 20 21 22 23 24 25 26 27

000
ASUS41 KLWX 211711
RWRLWX

REGIONAL WEATHER ROUNDUP
NATIONAL WEATHER SERVICE BALTIMORE MD/WASHINGTON DC
100 PM EDT MON AUG 21 2017

Note: "FAIR" indicates few or no clouds below 12,000 feet
with no significant weather and/or obstructions to visibility.
 TC=TEMPERATURE CELSIUS

 * =Non NWS site. Station does not report precipitation (e.g. rain,
    snow, etc.), thunder, or fog.

DCZ001-MDZ009-015-VAZ040>042-051-053>054-211800-
WASHINGTON METRO

CITY           SKY/WX    TMP DP  RH WIND       PRES   REMARKS
WASHINGTON NAT MOSUNNY   87  78  74 S10       30.17F HX 100
DULLES         MOSUNNY   88  75  65 SW8       30.17F HX  97
ANDREWS AFB    MOSUNNY   87  74  65 S10       30.16F HX  96
FT BELVOIR     SUNNY     88  75  64 S8        30.16F HX  97
QUANTICO       MOSUNNY   85  79  82 S7        30.18F HX  98
COLLEGE PARK*  MOSUNNY   88  73  61 S7        30.16F HX  95
LEESBURG*      MOSUNNY   88  77  70 S3        30.18F HX 100
MANASSAS*      SUNNY     90  77  65 VRB7      30.16F HX 103
GAITHERSBURG*  PTSUNNY   88  74  63 SW6       30.19F HX  96

$$

MDZ006>007-011-014-211800-
BALTIMORE METRO

CITY           SKY/WX    TMP DP  RH WIND       PRES   REMARKS
BWI AIRPORT    MOSUNNY   87  76  69 VRB3      30.16F HX  97
MD SCIENCE CTR   N/A     87  76  69 MISG      30.17F HX  97
MARTIN STATE   MOSUNNY   84  79  84 SE9       30.19F HX  96
ANNAPOLIS      PTSUNNY   85  80  85 SE13      30.17F HX  99
FORT MEADE*      N/A     86  73  66 S6        30.19F HX  93

$$

MDZ012-015-019>023-211800-
MARYLAND EASTERN SHORE

CITY           SKY/WX    TMP DP  RH WIND       PRES   REMARKS
OCEAN CITY     MOSUNNY   82  76  81 S8        30.23S
SALISBURY      MOSUNNY   86  73  65 S8        30.20F HX  93
BAY BRIDGE AP* MOSUNNY   86  75  70 S13       30.17F HX  95
CAMBRIDGE*     SUNNY     86  73  66 SE10      30.19F HX  93

$$

MDZ017>025-211800-
SOUTHERN MARYLAND

CITY           SKY/WX    TMP DP  RH WIND       PRES   REMARKS
PATUXENT RIVER MOSUNNY   85  77  77 SE12      30.18F HX  95
ST INIGOES     SUNNY     86  78  77 S10       30.18F HX  98
LEONARDTOWN*   PTSUNNY   86  73  66 S7        30.20F HX  93

$$

MDZ003>005-211800-
NORTH CENTRAL MARYLAND

CITY           SKY/WX    TMP DP  RH WIND       PRES   REMARKS
FREDERICK*     MOSUNNY   88  73  62 SW6       30.19F HX  96
HAGERSTOWN APT SUNNY     85  70  60 SW6       30.18F
WESTMINSTER*   PTSUNNY   86  73  66 W7        30.19F HX  93

$$

MDZ501>502-211800-
WESTERN MARYLAND

CITY           SKY/WX    TMP DP  RH WIND       PRES   REMARKS
OAKLAND*       SUNNY     77  61  57 W6        30.28S
CUMBERLAND*    SUNNY     88  70  55 SE3       30.20F HX  92

$$

VAZ025>031-211800-
SHENANDOAH VALLEY

CITY           SKY/WX    TMP DP  RH WIND       PRES   REMARKS
WINCHESTER*    MOSUNNY   86  70  58 SE3       30.17F HX  90
FRONT ROYAL*   MOSUNNY   88  73  62 S5        30.17F HX  96
LURAY*         MOSUNNY   90  70  51 SE3       30.18F HX  95
NEW MARKET*    SUNNY     88  70  55 CALM      30.16F HX  93
STAUNTON*      MOSUNNY   87  67  51 CALM      30.23F HX  90
WAYNESBORO*    SUNNY     88  68  51 SW5       30.23F HX  91

$$

WVZ021-048>050-054>055-211800-
EASTERN WEST VIRGINIA PANHANDLE

CITY           SKY/WX    TMP DP  RH WIND       PRES   REMARKS
MARTINSBURG    SUNNY     87  71  58 SW3       30.16F HX  93
PETERSBURG*    SUNNY     91  67  44 W8        30.18F HX  94

$$

VAZ036>039-050-211800-
CENTRAL FOOTHILLS

CITY           SKY/WX    TMP DP  RH WIND       PRES   REMARKS
CHARLOTTESVILL SUNNY     90  73  57 CALM      30.18F HX  98
CULPEPER*      MOSUNNY   91  74  58 S6        30.17F HX 100
ORANGE*        MOSUNNY   90  72  55 CALM      30.18S HX  96
GORDONSVILLE*  MOSUNNY   90  74  60 SW8       30.17F HX  99
WARRENTON*     MOSUNNY   90  70  51 S7        30.16F HX  95

$$

VAZ055>057-211800-
NORTH AND CENTRAL PIEDMONT

CITY           SKY/WX    TMP DP  RH WIND       PRES   REMARKS
FREDERICKSBRG* SUNNY     90  75  61 S8        30.16F HX 101
STAFFORD*      MOSUNNY   90  76  63 S8        30.21F HX 101

$$

NCZ024-NYZ072-PAZ021-071-VAZ022-071-211800-
OTHER REGIONAL OBSERVATIONS

CITY           SKY/WX    TMP DP  RH WIND       PRES   REMARKS
NEW YORK CITY  SUNNY     85  61  44 MISG      30.19F
PHILADELPHIA   PTSUNNY   85  66  53 S8        30.18F
PITTSBURGH     MOSUNNY   85  67  54 SW12G17   30.17F
ROANOKE        MOSUNNY   90  66  45 W9        30.23F HX  92
RICHMOND       MOSUNNY   88  77  69 S10       30.19F HX 100
RALEIGH        MOSUNNY   90  68  48 S6        30.22F HX  94

$$

ANZ530>537-211800-
MARINE OBSERVATIONS

STATION/POSITION TIME  TEMP    WIND        PRES
                       AIR SEA DIR/SP/G
                 (UTC) (F)     (DEG/KT/KT) (MB)
THOMAS PT LIGHT  1700   81 81  180/ 17/ 18   N/A
BALT KEY BRIDGE  1648   82     130/  8/ 11 1021.3F
COVE POINT       1648   80     180/ 18/ 19 1022.8F
LEWISETTA        1648   85 84  170/  9/ 12 1022.1F
SOLOMONS ISLAND  1642   84 82  170/  5/  9   N/A
PINEY POINT      1648          150/ 14/ 14   N/A

$$





USA.gov is the U.S. government's official web portal to all federal, state and local government web resources and services.